CZ-3C DEB, 39344

Orbit data source: Space-Track

CZ-3C DEB, 39344 is space debris in HEO originally from a launch on Sun, 31 Oct 2010 UTC launched from the Xichang Space Center, China (XSC). Debris objects in space refer to the collection of defunct objects orbiting the Earth. Examples of debris include non-operational satellites, rocket bodies, and fragments generated from explosions, collisions, or faulty payload assembly.

Loading next visibility...
Identifier
39344, 2010-057J
Orbit
HEO
Country
Flag of CNCN / PRC
Related business
Manufacturer
CALT
Mission
Spacecraft
Bus & Motor
Unknown
Mass
Unknown
Launch date (UTC)
2010-10-31 (15 years ago)
Launch vehicle
Unknown
Launch site
Xichang Space Center, China (XSC)
Object type
Payload
Rocket body
Debris
Shape & HBR
Unknown shape, 0.2 m
Radar Cross Section
Medium (>0.1 m² and <1 m²)

Expand to show TLE details & history
Last TLE update: 10 months ago

TLE from 10 months ago
0 CZ-3C DEB
1 39344U 10057J   25080.47733717  .00009700  00000-0  13761-1 0  9995
2 39344  20.2934 187.8835 6790582 280.2893  15.1127  2.84096532  9829
Epoch: 2025-03-21T11:27Z
TLE epoch observation values (Epoch: 2025-03-21T11:27:21.931Z)
Latitude
0.00013°
Longitude
-163.23386°
Altitude
3,752.615 km
Speed
7.73 km/s
True Right ascension
12h 31m 22s
True Declination
0° 00' 00"
Sunlit
Object was in full shadow at epoch
Visualization orbit readout
Latitude
Unknown
Longitude
Unknown
Altitude
Unknown
Speed
Unknown
Apparent Right ascension
Unknown
Apparent Declination
Unknown
Sunlit
N/A
Visualization observer readout
Local Sidereal Time
15:23:43
Azimuth
Unknown
Elevation
Unknown
Doppler factor
Unknown
Orbital elements
Apogee altitude
28,987.374 km
Perigee altitude
381.766 km
Semi-major axis
21,062.707 km
Eccentricity
0.67906
Inclination
20.2934°
RAAN
187.8835°
Arg. of periapsis
280.2893°
True anomaly
79.94158°
Mean anomaly
15.1127°
Eccentric anomaly
40.25323°
Mean motion
0.71002 °/min
Orbital period
507.03 mins
BSTAR
0.013761
Loading maneuver chart data...
Computing Atmospheric mass density...
Loading historical data...
Loading historical data...
Loading historical data...
Loading historical data...
Loading historical data...
Loading historical data...
Loading historical data...

Documentation

Showing up to 5 results
|